Voltar ao catálogo

ARIANE 5 R/B

AtivoHEO
NORAD 38553·ROCKET BODY·🇫🇷 France

Lançado Jul 5, 2012 de Guiana Space Centre

Loading…

Próximas Passagens (próximas 24 horas)

TLE

AtualizadoSource: Space-Track

Época: Sep 14, 2026, 12:32 UTC

1 38553U 12035C   26257.52283842  .00002619  00000-0  69938-3 0  9997
2 38553   6.4129 309.9356 7074240   8.3080 359.1298  2.54386060124442

Acompanhe ARIANE 5 R/B em tempo real com AllMySat

Download on the App Store